Regional Weather Roundup
Issued by NWS

Home | Current Version | Previous Version | Text Only | Print | Product List | Glossary On
Versions: 1 2 3 4 5 6 7 8 9 10 11 12 13 14 15 16 17 18 19 20 21 22 23 24 25 26 27 28 29 30 31 32 33 34 35 36 37 38 39 40 41 42 43 44 45 46 47 48 49 50
000
ASUS43 KMKX 241800
RWRWI

WISCONSIN REGIONAL WEATHER ROUNDUP
NATIONAL WEATHER SERVICE MILWAUKEE/SULLIVAN WI
1200 PM CST FRI NOV 24 2017

NOTE: "FAIR" INDICATES FEW OR NO CLOUDS BELOW 12,000 FEET WITH NO
SIGNIFICANT WEATHER AND/OR OBSTRUCTIONS TO VISIBILITY.

WIZ001-002-006>008-014>016-023>028-241900-
NORTHWEST WISCONSIN

CITY           SKY/WX    TMP DP  RH WIND       PRES   REMARKS
SUPERIOR ARPT  CLOUDY    42  40  90 SW10      29.29R
6HR MIN TEMP:  40; 6HR MAX TEMP:  44; 6HR PCP:  0.02;

ASHLAND        CLOUDY    49  39  68 SW9       29.25F
6HR MIN TEMP:  44; 6HR MAX TEMP:  52; 6HR PCP: TRACE;

HAYWARD        LGT RAIN  53  38  56 W6        29.30F
6HR MIN TEMP:  38; 6HR MAX TEMP:  53; 6HR PCP: TRACE;

SIREN          CLOUDY    51  38  59 W7        29.32F
CUMBERLAND     MOSUNNY   50  36  57 W12       29.31F
RICE LAKE      SUNNY     54  38  55 W9        29.34S
CHETEK         SUNNY     55  40  55 W9        29.33R
LADYSMITH      MOSUNNY   54  38  56 W12       29.34S
6HR MIN TEMP:  37; 6HR MAX TEMP:  55;

EAU CLAIRE     NOT AVBL
MENOMONIE      MOSUNNY   56  38  50 SW12      29.33F
NEW RICHMOND   MOSUNNY   54  37  53 SW7       29.33F
OSCEOLA        PTSUNNY   55  39  56 W10       29.36S
$$

WIZ003>005-009-010-017-018-241900-
NORTH CENTRAL WISCONSIN

CITY           SKY/WX    TMP DP  RH WIND       PRES   REMARKS
MANITOWISH WTR CLOUDY    49  37  63 SW8       29.29S
ARBOR VITAE    MOSUNNY   55  40  57 SW10G17   29.27F
WOODRUFF       MOSUNNY   55  40  57 SW10G17   29.27F
RHINELANDER    SUNNY     51  37  58 W10       29.29F
6HR MIN TEMP:  38; 6HR MAX TEMP:  51;

EAGLE RIVER    MOSUNNY   49  34  55 SW9       29.27R
6HR MIN TEMP:  38; 6HR MAX TEMP:  49;

LAND O LAKES   CLOUDY    48  35  61 SW6       29.28F
PHILLIPS       MOSUNNY   53  38  58 W13       29.31R
6HR MIN TEMP:  41; 6HR MAX TEMP:  53;

TOMAHAWK       SUNNY     52  37  55 SW6       29.31F
MEDFORD        CLOUDY    49  36  62 W12G18    29.34R
MERRILL        MOSUNNY   52  37  57 SW7       29.30F
6HR MIN TEMP:  38; 6HR MAX TEMP:  52;

$$

WIZ029-030-035-036-043>047-241900-
CENTRAL WISCONSIN

CITY           SKY/WX    TMP DP  RH WIND       PRES   REMARKS
WAUSAU         MOSUNNY   53  36  52 S12       29.29F
6HR MIN TEMP:  39; 6HR MAX TEMP:  54;

MOSINEE        PTSUNNY   55  37  50 S16G22    29.32F
MARSHFIELD     MOSUNNY   58  36  43 SW12      29.29F
6HR MIN TEMP:  41; 6HR MAX TEMP:  58;

STEVENS POINT  SUNNY     57  36  45 SW14G21   29.34F
WAUPACA        CLOUDY    60  35  39 S12       29.36F
WAUTOMA        SUNNY     62  37  39 S13G18    29.36F
6HR MIN TEMP:  39; 6HR MAX TEMP:  62;

WISC RAPIDS    SUNNY     58  37  45 SW12G22   29.34F
6HR MIN TEMP:  44; 6HR MAX TEMP:  59;

CAMP DOUGLAS   SUNNY     61  38  42 SW9G18    29.34F
6HR MIN TEMP:  44; 6HR MAX TEMP:  61;

$$

WIZ011>013-019>022-031-037>040-048>050-241900-
NORTHEAST WISCONSIN

CITY           SKY/WX    TMP DP  RH WIND       PRES   REMARKS
ANTIGO         CLOUDY    50  36  60 SW12      29.32F
SHAWANO        MOSUNNY   59  36  41 SW14G21   29.32F
6HR MIN TEMP:  42; 6HR MAX TEMP:  59;

OCONTO           N/A     55  36  47 SW10      29.34F
STURGEON BAY   MOSUNNY   57  39  51 S15G26    29.34F
6HR MIN TEMP:  40; 6HR MAX TEMP:  59;

GREEN BAY      MOSUNNY   56  39  53 S16G26    29.35F
6HR MIN TEMP:  41; 6HR MAX TEMP:  56;

MANITOWOC      CLOUDY    53  39  59 SE10      29.40F
6HR MIN TEMP:  40; 6HR MAX TEMP:  57;

APPLETON       PTSUNNY   55  32  41 S21G28    29.36F
CLINTONVILLE   SUNNY     57  34  41 SW14      29.36F
OSHKOSH        SUNNY     60  38  43 SW20G37   29.38F
6HR MIN TEMP:  41; 6HR MAX TEMP:  60;

$$

WIZ032>034-041-042-053>061-241900-
SOUTHWEST WISCONSIN

CITY           SKY/WX    TMP DP  RH WIND       PRES   REMARKS
LA CROSSE      SUNNY     61  39  44 S10       29.34F
6HR MIN TEMP:  44; 6HR MAX TEMP:  61;

SPARTA         SUNNY     60  39  45 SW10      29.36F
VIROQUA        SUNNY     58  39  50 S20       29.37F
6HR MIN TEMP:  39; 6HR MAX TEMP:  58;

BOSCOBEL       SUNNY     64  37  36 SW14G21   29.40F
6HR MIN TEMP:  37; 6HR MAX TEMP:  64;

PRAIRIE DU CHI SUNNY     62  36  37 S7        29.41F
PLATTEVILLE    SUNNY     61  40  45 S23       29.45F
$$

WIZ056-057-062-063-064-067-068-241900-
SOUTH CENTRAL WISCONSIN

CITY           SKY/WX    TMP DP  RH WIND       PRES   REMARKS
REEDSBURG      SUNNY     61  38  43 S9G16     29.40F
BARABOO/DELLS  SUNNY     61  35  37 SW16G23   29.40F
LONE ROCK      NOT AVBL
MINERAL POINT  SUNNY     61  37  41 S18       29.44F
MADISON        MOSUNNY   59  36  42 SW12G24   29.43F
6HR MIN TEMP:  39; 6HR MAX TEMP:  59;

MIDDLETON      SUNNY     61  35  38 SW14G21   29.44F
WATERTOWN      SUNNY     60  37  42 S16G26    29.46F
MONROE         SUNNY     55  34  44 S25G32    29.47F
JANESVILLE     SUNNY     63  36  36 S18G24    29.48F
$$

WIZ051-052-058>065-066-070>072-241900-
SOUTHEAST WISCONSIN

CITY           SKY/WX    TMP DP  RH WIND       PRES   REMARKS
MILWAUKEE      MOSUNNY   63  37  38 SW20G33   29.50F
6HR MIN TEMP:  42; 6HR MAX TEMP:  63;

WAUKESHA       SUNNY     57  36  44 SW17G25   29.50F
MILWAUKEE/TIMM SUNNY     61  30  31 SW20G25   29.49F
RACINE         SUNNY     61  36  39 S18G31    29.53F
6HR MIN TEMP:  38; 6HR MAX TEMP:  61;

BURLINGTON     SUNNY     61  42  50 S18G25    29.52F
KENOSHA        SUNNY     60  35  39 SW17G33   29.53F
6HR MIN TEMP:  39; 6HR MAX TEMP:  60;

FOND DU LAC    SUNNY     60  35  39 SW20G33   29.40F
6HR MIN TEMP:  41; 6HR MAX TEMP:  60;

SHEBOYGAN      MOSUNNY   66  40  38 S21G29    29.41F
6HR MIN TEMP:  44; 6HR MAX TEMP:  66; 6HR PCP: TRACE;

WEST BEND      SUNNY     61  34  36 SW21G29   29.44F
JUNEAU         SUNNY     57  37  47 S20G28    29.46F
$$

LSZ147-162-241900-
LAKE SUPERIOR

STATION/POSITION TIME  TEMP    WIND        PRES    WAVE
                       AIR SEA DIR/SP/G            HT/PER
                 (UTC) (F)     (DEG/KT/KT) (MB)    (FT/S)
DEVILS ISLAND    1700   43     240/ 21/ 24  991.1R
SAXON HARBOR     1730   52     200/ 11/ 16  990.9S
$$

LMZ867-665-643>646-241900-
LAKE MICHIGAN

STATION/POSITION TIME  TEMP    WIND        PRES    WAVE
                       AIR SEA DIR/SP/G            HT/PER
                 (UTC) (F)     (DEG/KT/KT) (MB)    (FT/S)
N MID LAKE BUOY  1650   48 47  200/ 29/ 33  994.8F  10/ 8
NORTHPORT PIER   1740   47     160/  9/ 20  993.2F
KEWAUNEE LAKESHO 1730   42     180/ 16/ 18  994.9F
SHEBOYGAN LAKESH 1700   43     170/ 23/ 25  997.9F
PORT WASHINGTON  1740   62     210/ 14/ 26  998.6F
MILWAUKEE LAKESH 1730   58     230/ 22/ 27   N/A
S MID LAKE BUOY  1650   46 47  200/ 25/ 31 1002.9F   6/ 6
KENOSHA   LAKESH 1700   57     200/ 13/ 22 1001.7
$$

TC  - TEMPERATURE IN CELSIUS
VSB - VISIBILITY IN STATUTE MILES
WCI - WIND CHILL INDEX
HX  - HEAT INDEX




USA.gov is the U.S. government's official web portal to all federal, state and local government web resources and services.